TimeCST,TemperatureF,Dew PointF,Humidity,Sea Level PressureIn,VisibilityMPH,Wind Direction,Wind SpeedMPH,Gust SpeedMPH,PrecipitationIn,Events,Conditions,WindDirDegrees,DateUTC
12:15 AM,-1.8,-6.0,83,30.23,3.0,SW,5.8,-,N/A,Snow,Light Snow,230,2013-12-06 06:15:00
12:35 AM,-1.8,-6.0,83,30.23,4.0,WSW,6.9,-,N/A,Snow,Light Snow,240,2013-12-06 06:35:00
12:55 AM,-2.2,-6.2,83,30.24,3.0,WSW,6.9,-,N/A,Snow,Light Snow,240,2013-12-06 06:55:00
1:15 AM,-2.4,-6.7,82,30.24,3.0,WSW,6.9,-,N/A,Snow,Light Snow,250,2013-12-06 07:15:00
1:35 AM,-3.1,-6.9,84,30.25,3.0,WSW,6.9,-,N/A,Snow,Light Snow,240,2013-12-06 07:35:00
1:55 AM,-2.6,-6.7,82,30.25,2.5,WSW,9.2,-,N/A,Snow,Light Snow,240,2013-12-06 07:55:00
2:15 AM,-2.7,-7.1,82,30.26,3.0,WSW,9.2,-,N/A,Snow,Light Snow,250,2013-12-06 08:15:00
2:35 AM,-3.1,-7.4,82,30.26,3.0,West,8.1,-,N/A,Snow,Light Snow,260,2013-12-06 08:35:00
2:55 AM,-3.1,-7.6,81,30.26,3.0,West,9.2,-,N/A,,Haze,260,2013-12-06 08:55:00
3:15 AM,-3.8,-8.1,82,30.25,3.0,WSW,6.9,-,N/A,,Mist,250,2013-12-06 09:15:00
3:35 AM,-4.5,-8.5,83,30.25,5.0,West,5.8,-,N/A,,Clear,260,2013-12-06 09:35:00
3:55 AM,-4.9,-8.7,84,30.25,7.0,WSW,4.6,-,N/A,,Clear,250,2013-12-06 09:55:00
4:15 AM,-6.3,-10.5,82,30.26,10.0,SW,4.6,-,N/A,,Clear,230,2013-12-06 10:15:00
4:35 AM,-6.7,-10.5,84,30.26,10.0,WSW,3.5,-,N/A,,Clear,240,2013-12-06 10:35:00
4:55 AM,-7.1,-10.8,84,30.27,10.0,SW,3.5,-,N/A,,Clear,230,2013-12-06 10:55:00
5:55 AM,-7.2,-11.2,83,30.28,10.0,WSW,3.5,-,N/A,,Clear,250,2013-12-06 11:55:00
6:15 AM,-7.8,-11.7,83,30.29,10.0,WSW,4.6,-,N/A,,Clear,250,2013-12-06 12:15:00
6:35 AM,-8.0,-12.1,82,30.30,10.0,WSW,5.8,-,N/A,,Clear,240,2013-12-06 12:35:00
6:55 AM,-8.0,-12.1,82,30.32,10.0,SW,4.6,-,N/A,,Clear,220,2013-12-06 12:55:00
7:15 AM,-8.0,-12.1,82,30.32,7.0,WSW,4.6,-,N/A,Snow,Light Snow,240,2013-12-06 13:15:00
7:35 AM,-8.3,-12.6,81,30.33,7.0,WSW,4.6,-,N/A,,Clear,240,2013-12-06 13:35:00
7:55 AM,-8.5,-12.8,81,30.33,7.0,WSW,3.5,-,N/A,,Clear,240,2013-12-06 13:55:00
8:15 AM,-6.9,-11.2,81,30.34,7.0,SW,3.5,-,N/A,,Mostly Cloudy,230,2013-12-06 14:15:00
8:35 AM,-5.4,-9.9,81,30.35,7.0,WSW,5.8,-,N/A,,Overcast,250,2013-12-06 14:35:00
8:55 AM,-4.9,-8.9,83,30.36,10.0,WSW,5.8,-,N/A,,Overcast,250,2013-12-06 14:55:00
9:15 AM,-4.2,-8.5,82,30.36,7.0,West,6.9,-,N/A,,Overcast,260,2013-12-06 15:15:00
9:35 AM,-4.0,-8.5,81,30.37,7.0,West,5.8,-,N/A,,Overcast,260,2013-12-06 15:35:00
9:55 AM,-3.5,-8.5,79,30.38,5.0,WSW,6.9,-,N/A,,Haze,250,2013-12-06 15:55:00
10:15 AM,-2.9,-8.1,78,30.39,5.0,West,5.8,-,N/A,,Haze,270,2013-12-06 16:15:00
10:35 AM,-1.7,-7.6,76,30.39,5.0,West,6.9,-,N/A,,Haze,280,2013-12-06 16:35:00
10:55 AM,-0.9,-6.9,76,30.39,7.0,West,8.1,-,N/A,,Clear,280,2013-12-06 16:55:00
11:15 AM,-0.0,-6.0,76,30.39,10.0,West,5.8,-,N/A,,Clear,270,2013-12-06 17:15:00
11:35 AM,0.7,-5.6,75,30.39,7.0,WSW,5.8,-,N/A,,Clear,250,2013-12-06 17:35:00
11:55 AM,1.6,-4.9,74,30.38,10.0,WSW,5.8,-,N/A,,Clear,240,2013-12-06 17:55:00
12:15 PM,2.7,-4.2,73,30.38,10.0,West,4.6,-,N/A,,Scattered Clouds,260,2013-12-06 18:15:00
12:35 PM,3.2,-3.5,74,30.38,10.0,West,8.1,-,N/A,,Clear,260,2013-12-06 18:35:00
12:55 PM,3.9,-3.1,73,30.37,10.0,West,9.2,-,N/A,,Scattered Clouds,270,2013-12-06 18:55:00
1:15 PM,4.3,-2.4,74,30.37,10.0,WSW,5.8,-,N/A,,Scattered Clouds,250,2013-12-06 19:15:00
1:35 PM,4.8,-1.8,74,30.37,10.0,WSW,6.9,-,N/A,,Scattered Clouds,250,2013-12-06 19:35:00
1:55 PM,5.7,-1.1,73,30.37,10.0,West,8.1,-,N/A,,Scattered Clouds,260,2013-12-06 19:55:00
2:15 PM,5.9,-1.1,73,30.37,10.0,WSW,5.8,-,N/A,,Scattered Clouds,250,2013-12-06 20:15:00
2:35 PM,5.9,-1.3,72,30.37,10.0,West,10.4,-,N/A,,Scattered Clouds,260,2013-12-06 20:35:00
2:55 PM,5.0,-1.7,74,30.37,10.0,West,9.2,-,N/A,,Scattered Clouds,270,2013-12-06 20:55:00
3:15 PM,5.4,-0.9,75,30.38,10.0,WSW,9.2,-,N/A,,Scattered Clouds,250,2013-12-06 21:15:00
3:35 PM,5.4,-0.9,75,30.38,10.0,WSW,4.6,-,N/A,,Scattered Clouds,250,2013-12-06 21:35:00
3:55 PM,4.6,-1.3,76,30.39,10.0,WSW,8.1,-,N/A,,Scattered Clouds,240,2013-12-06 21:55:00
4:15 PM,4.1,-1.7,77,30.40,10.0,WSW,8.1,-,N/A,,Mostly Cloudy,250,2013-12-06 22:15:00
4:35 PM,3.6,-1.8,78,30.40,10.0,WSW,6.9,-,N/A,,Overcast,240,2013-12-06 22:35:00
4:55 PM,2.7,-2.2,80,30.41,10.0,WSW,4.6,-,N/A,,Overcast,240,2013-12-06 22:55:00
5:35 PM,1.2,-2.9,83,30.42,10.0,WSW,5.8,-,N/A,,Clear,250,2013-12-06 23:35:00
5:55 PM,0.9,-3.1,83,30.42,10.0,WSW,4.6,-,N/A,,Clear,240,2013-12-06 23:55:00
6:15 PM,-0.0,-4.0,83,30.43,10.0,West,5.8,-,N/A,,Clear,260,2013-12-07 00:15:00
6:35 PM,-0.8,-4.7,83,30.43,10.0,West,6.9,-,N/A,,Scattered Clouds,270,2013-12-07 00:35:00
6:55 PM,-1.1,-5.1,83,30.44,10.0,West,6.9,-,N/A,,Scattered Clouds,270,2013-12-07 00:55:00
7:15 PM,-1.8,-5.6,84,30.44,10.0,West,5.8,-,N/A,,Clear,280,2013-12-07 01:15:00
7:35 PM,-3.1,-6.9,84,30.45,10.0,WNW,6.9,-,N/A,,Clear,290,2013-12-07 01:35:00
7:55 PM,-2.2,-6.7,81,30.46,10.0,WNW,9.2,-,N/A,,Clear,290,2013-12-07 01:55:00
8:15 PM,-3.3,-8.0,80,30.46,10.0,West,8.1,-,N/A,,Clear,280,2013-12-07 02:15:00
8:35 PM,-4.0,-8.7,80,30.46,10.0,West,8.1,-,N/A,,Clear,280,2013-12-07 02:35:00
8:55 PM,-4.2,-8.7,81,30.47,10.0,West,6.9,-,N/A,,Clear,270,2013-12-07 02:55:00
9:15 PM,-4.9,-9.2,82,30.48,10.0,WSW,3.5,-,N/A,,Clear,250,2013-12-07 03:15:00
9:35 PM,-5.3,-9.4,82,30.48,10.0,WSW,4.6,-,N/A,,Clear,250,2013-12-07 03:35:00
9:55 PM,-5.4,-9.9,81,30.49,10.0,WSW,4.6,-,N/A,,Clear,250,2013-12-07 03:55:00
10:15 PM,-6.3,-10.5,82,30.50,10.0,WSW,5.8,-,N/A,,Clear,240,2013-12-07 04:15:00
10:35 PM,-6.3,-10.3,83,30.50,10.0,WSW,4.6,-,N/A,,Clear,250,2013-12-07 04:35:00
10:55 PM,-7.1,-11.4,81,30.51,10.0,SW,4.6,-,N/A,,Clear,230,2013-12-07 04:55:00
11:15 PM,-7.4,-11.6,82,30.51,10.0,SW,5.8,-,N/A,,Clear,230,2013-12-07 05:15:00
11:35 PM,-7.6,-11.9,81,30.52,10.0,SW,5.8,-,N/A,,Clear,230,2013-12-07 05:35:00
11:55 PM,-8.5,-12.5,83,30.52,10.0,WSW,4.6,-,N/A,,Clear,240,2013-12-07 05:55:00